Terminal Aerodrome Forecast
Issued by NWS Greer, SC

Home | Current Version | Previous Version | Text Only | Print | Product List | Glossary On
Versions: 1 2 3 4 5 6 7 8 9 10 11 12 13 14 15 16 17 18 19 20 21 22 23 24
727
FTUS42 KGSP 280928 AAC
TAFGSP
TAF AMD
KGSP 280928Z 2809/2906 21007KT P6SM SCT003 BKN012
      TEMPO 2810/2813 BKN003
     FM281300 23008KT P6SM BKN040
     FM281600 24010G17KT P6SM SCT050
     FM290200 31006KT P6SM FEW250=

USA.gov is the U.S. government's official web portal to all federal, state and local government web resources and services.